Погода в Губино

Россия / Московская область     55°27′13″N   38°35′34″E
темп.,
°C
ветер,
м/с
пор.,
м/с
влажн.,
%
обл.,
%
осадки,
мм/ч
давл.,
гПа
погр.,
м
25 февраля, чт
чт2500:00−13ю4794100 0.3 1028336
03:00−11ююз4895100 1.4 1025350
06:00−8ююз51295100 3.3 1019453
09:00−1зюз61395100 4.9 1014545
12:00+2з513100100 0.3 1012475
15:00+3зсз613100100 0.3 1012478
18:00+2зсз41099100 0.0 1013361
21:00+1зсз399799 0.0 1014243
26 февраля, пт
пт2600:00+1зюз4799100 0.1 1013193
03:00+2зюз411100100 1.2 1011308
06:00+2з513100100 1.1 1009387
09:00+2з61399100 1.4 1007479
12:00+3з615100100 0.0 1005549
15:00+3з71799100 0.2 1003693
18:00+2з6159282 0.1 1003788
21:00+2з6158591 0.1 1003897
27 февраля, сб
сб2700:00+1з6158898 0.0 1001780
03:000з7149495 0.1 1002715
06:000зсз61397100 0.1 1000770
09:000сз61297100 0.3 1002813
12:00−5ссз61084100 0.8 1004758
15:00−6с5984100 0.8 1007717
18:00−8ссз41089100 0.0 1009563
21:00−10с41092100 0.0 1012478
28 февраля, вс
вс2800:00−11ссз389299 0.0 1014361
03:00−12ссз379367 0.0 1016248
06:00−11ссз389360 0.0 1016409
09:00−9ссз489176 0.2 1017433
12:00−6ссз378895 0.0 1017585
15:00−4ссз578697 0.1 1018857
18:00−4ссз3794100 0.1 1019414
21:00−5ссз3894100 0.3 1021376
1 марта, пн
пн100:00−6с279598 0.1 1023364
03:00−6ссз239599 0.1 1024126
06:00−6сз1297100 0.1 102561
09:00−5зсз2394100 0.1 1026199
12:00−3зсз3584100 0.1 1026723
15:00−2з358699 0.1 1025657
18:00−4зюз379389 0.0 1024176
21:00−2зюз499494 0.0 1022394